Lexington Weather

Lexington, Massachusetts, USA

44°F
5/12/2021 5:15am 
  • Lexington Conditions: Clear
  • Temperature: 44.2°F / 6.8°CColder 0.2°F than last hour.
  • Dew Point: 33.3°FIncreased 0.8°Fsince last hour.
  • Relative Humidity: 65%Increased 2.0% since last hour.
  • Wind: Wind from SW SW 1 mph, 10-min avg: Calm, gust: 3 mph
  • Barometer: 29.94 inRising 0.02  inHg/hr Rising Slowly
  • Visibility: 10 miles
  • Rain Today: 0.00 in
  •   

Regional Weather Roundup
for Boston / Norton, MA

        
000
ASUS41 KBOX 100404
RWRBOX

REGIONAL WEATHER ROUNDUP
NATIONAL WEATHER SERVICE BOSTON/NORTON MA
1200 AM EDT MON MAY 10 2021

NOTE:  "FAIR" INDICATES FEW OR NO CLOUDS BELOW 12,000 FEET WITH NO 
SIGNIFICANT WEATHER AND/OR OBSTRUCTIONS TO VISIBILITY.

MAZALL-100500-
EASTERN MASSACHUSETTS
  
CITY           SKY/WX    TMP DP  RH WIND       PRES   REMARKS
BOSTON         CLOUDY    55  42  61 SW7       29.92F                  
BEVERLY        LGT RAIN  54  42  64 SW9       29.91F                  
LAWRENCE       CLOUDY    55  41  59 SW8       29.92F                  
BEDFORD        CLOUDY    52  43  71 CALM      29.90F                  
BLUE HILL        N/A     49  41  74 SW5       29.90F                  
NORWOOD        CLOUDY    53  41  63 VRB5      29.91F                  
MARSHFIELD     CLOUDY    54  41  62 SW5       29.92F                  
PLYMOUTH       LGT RAIN  50  42  74 S5        29.92F                  
TAUNTON        LGT RAIN  50  43  77 SW5       29.93F                  
NEW BEDFORD    LGT RAIN  49  45  86 SW5       29.93F                  
$$

MAZALL-100500-
CAPE COD AND THE ISLANDS
  
CITY           SKY/WX    TMP DP  RH WIND       PRES   REMARKS
FALMOUTH       CLOUDY    48  46  93 SW12      29.95F                  
HYANNIS        CLOUDY    51  45  79 SW15      29.93F                  
CHATHAM        CLOUDY    51  42  71 SW7G18    29.97S                  
PROVINCETOWN   CLOUDY    50  47  89 SW10      29.95F                  
NANTUCKET      LGT RAIN  48  44  86 SW15      29.98F                  
MARTHAS VNYRD  LGT RAIN  49  46  90 SW8       29.95F                  
$$
 
MAZALL-100500-
CENTRAL AND WESTERN MASSACHUSETTS
  
CITY           SKY/WX    TMP DP  RH WIND       PRES   REMARKS
WORCESTER      CLOUDY    48  41  76 SW3       29.89F                  
FITCHBURG      CLOUDY    51  42  71 CALM      29.89F                  
ORANGE         CLOUDY    50  43  77 S6        29.90F                  
SPRINGFIELD    LGT RAIN  48  46  93 CALM      29.87F                  
WESTFIELD      LGT RAIN  47  46  97 SE3       29.87F                  
NORTH ADAMS    CLOUDY    48  43  82 E3        29.86F                  
PITTSFIELD     LGT RAIN  45  42  89 E3        29.84F                  
$$
 
RIZALL-100500-
RHODE ISLAND
  
CITY           SKY/WX    TMP DP  RH WIND       PRES   REMARKS
PROVIDENCE     LGT RAIN  49  45  86 S5        29.91F                  
NEWPORT        LGT RAIN  47  45  93 S5        29.92F                  
BLOCK ISLAND   LGT RAIN  45  44  97 S6        29.93F                  
SMITHFIELD     LGT RAIN  47  46  97 CALM      29.91F                  
WESTERLY       HVY RAIN  45  44  97 E6        29.91F FOG              
$$
 
CTZALL-100500-
CONNECTICUT
  
CITY           SKY/WX    TMP DP  RH WIND       PRES   REMARKS
BRADLEY INTL   RAIN      48  46  93 SE8       29.88F FOG              
HARTFORD       RAIN      48  45  89 SE5       29.89F FOG              
BRIDGEPORT     RAIN      48  45  89 E12       29.87F                  
DANBURY        LGT RAIN  47  44  90 NE6       29.86F FOG              
GROTON         RAIN      47  45  93 E5        29.91F FOG              
NEW HAVEN      LGT RAIN  49  46  90 SE8       29.88F FOG              
CHESTER        RAIN      46  46 100 SE7       29.88F                  
MERIDEN        RAIN      47  45  93 CALM      29.88F                  
WILLIMANTIC    RAIN      47  45  93 SE3       29.90F FOG              
OXFORD         LGT RAIN  45  45 100 E6        29.86F FOG              
$$

MEZ002-015-021-024-NHZ003-005-008-011-012-014-VTZ005-008-100500-
NORTHERN NEW ENGLAND
  
CITY           SKY/WX    TMP DP  RH WIND       PRES   REMARKS
PORTLAND ME    CLOUDY    54  38  54 CALM      29.87S                  
BANGOR ME      PTCLDY    46  36  68 CALM      29.84F                  
CONCORD NH     CLOUDY    54  35  48 W3        29.89F                  
MANCHESTER NH  CLOUDY    56  37  49 SW8       29.88F                  
NASHUA NH      CLOUDY    54  40  59 CALM      29.90F                  
PORTSMOUTH NH  CLOUDY    56  31  38 SW7       29.89F                  
JAFFREY NH     CLOUDY    50  41  71 CALM      29.88F                  
KEENE NH       LGT RAIN  50  40  68 CALM      29.88F                  
BURLINGTON VT  CLOUDY    52  42  69 E3        29.87F                  
MT. WASHINGTON FLURRIES  28  27  93 W12         N/A  WCI  18          
$$

NYZ052-076-100500-
EASTERN NEW YORK
  
CITY           SKY/WX    TMP DP  RH WIND       PRES   REMARKS
ALBANY         LGT RAIN  45  44  97 CALM      29.87F                  
NEW YORK CITY  LGT RAIN  49  44  83 E13       29.83F                  
$$
 
ANZALL-100500-
MARINE OBSERVATIONS
  
STATION/POSITION TIME  TEMP    WIND        PRES    VSBY  WAVE
                       AIR SEA DIR/SP/G                  HT/PER
                 (UTC) (F)     (DEG/KT/KT) (MB)    (MI)  (FT/S)
BOSTON BUOY      0340   51 48  240/ 12/ 14 1013.3F
BUZZARDS BAY     0300          230/ 14/ 16 1015.9F
NANTUCKET SOUND  0340      53                N/A
MASS BAY-STELLWA 0304   53     230/ 16/ 19 1012.2R  1 7/8  3/ 3
ISLE OF SHOALS   0300   59     240/ 11/ 12 1011.7S
S OF BLOCK IS    0326      49                N/A           4/ 5
$$

......................KEY.........................
  SKY/WX - SKY CONDITION/PRESENT WEATHER
  TMP    - TEMPERATURE IN FAHRENHEIT
  DWPT   - DEWPOINT IN FAHRENHEIT
  RH     - RELATIVE HUMIDITY IN PERCENT
  WIND   - DIRECTION AND SPEED IN MPH
  PRES   - MEAN SEA LEVEL PRESSURE IN INCHES OF HG
  WCI    - WIND CHILL INDEX
  VSB    - VISIBILITY IN MILES
  HX     - HEAT INDEX
  TC     - TEMPERATURE IN CELSIUS
  VRB    - VARIABLE WIND DIRECTION
  N/A    - NOT AVAILABLE
  
      

Other recent Regional Weather Roundups

Wed May 12, 5:04am

Wed May 12, 4:04am

Wed May 12, 3:04am

Wed May 12, 2:04am

Wed May 12, 1:04am

Wed May 12, 12:05am

Tue May 11, 11:05pm

Tue May 11, 10:04pm

Tue May 11, 9:05pm

Tue May 11, 8:05pm

Tue May 11, 7:04pm

Tue May 11, 6:04pm

Tue May 11, 5:04pm

Tue May 11, 4:05pm

Tue May 11, 3:04pm

Tue May 11, 2:05pm

Tue May 11, 1:04pm

Tue May 11, 12:05pm

Tue May 11, 11:05am

Tue May 11, 10:04am

Tue May 11, 9:04am

Tue May 11, 8:04am

Tue May 11, 7:05am

Tue May 11, 6:04am

Tue May 11, 5:04am

Tue May 11, 4:04am

Tue May 11, 3:04am

Tue May 11, 2:04am

Tue May 11, 1:04am

Tue May 11, 12:04am

Mon May 10, 11:04pm

Mon May 10, 10:04pm

Mon May 10, 9:05pm

Mon May 10, 8:04pm

Mon May 10, 7:05pm

Mon May 10, 6:04pm

Mon May 10, 5:04pm

Mon May 10, 4:04pm

Mon May 10, 3:04pm

Mon May 10, 2:04pm

Mon May 10, 1:04pm

Mon May 10, 12:04pm

Mon May 10, 11:05am

Mon May 10, 10:04am

Mon May 10, 9:04am

Mon May 10, 8:04am

Mon May 10, 7:04am

Mon May 10, 6:04am

Mon May 10, 5:05am

Mon May 10, 4:04am

Mon May 10, 3:04am

Mon May 10, 2:04am

Mon May 10, 1:04am

Sun May 9, 11:04pm

Sun May 9, 10:04pm

Sun May 9, 9:04pm

Sun May 9, 8:04pm

Sun May 9, 7:05pm

Sun May 9, 6:04pm

Sun May 9, 5:04pm

Sun May 9, 4:04pm

Sun May 9, 3:04pm

Sun May 9, 2:04pm

Sun May 9, 1:05pm

Sun May 9, 12:04pm

Sun May 9, 11:05am

Sun May 9, 10:04am

Sun May 9, 9:04am

Sun May 9, 8:04am

Sun May 9, 7:04am

Sun May 9, 6:04am

Sun May 9, 5:04am

Sun May 9, 4:04am

Sun May 9, 3:04am

Sun May 9, 2:04am

Sun May 9, 1:05am

Sun May 9, 12:04am

Sat May 8, 11:05pm

Sat May 8, 10:04pm

Sat May 8, 9:05pm

Sat May 8, 8:04pm

Sat May 8, 7:04pm

Sat May 8, 6:04pm

Sat May 8, 5:05pm

Sat May 8, 4:04pm

Sat May 8, 3:05pm

Sat May 8, 2:05pm

Sat May 8, 1:05pm

Sat May 8, 12:04pm

Sat May 8, 11:05am

Sat May 8, 10:04am

Sat May 8, 9:04am

Sat May 8, 8:04am

Sat May 8, 7:04am

Sat May 8, 6:04am

Sat May 8, 5:04am

Sat May 8, 4:04am

Sat May 8, 3:04am

Sat May 8, 2:04am

Sat May 8, 1:05am

Sat May 8, 12:04am

Fri May 7, 11:04pm

Fri May 7, 10:05pm

Fri May 7, 9:04pm

Fri May 7, 8:04pm

Fri May 7, 7:05pm

Fri May 7, 6:04pm

Fri May 7, 5:05pm

Fri May 7, 4:04pm

Fri May 7, 3:04pm

Fri May 7, 2:05pm

Fri May 7, 1:04pm

Fri May 7, 12:04pm

Fri May 7, 11:05am

Fri May 7, 10:04am

Fri May 7, 9:04am

Fri May 7, 8:05am

Fri May 7, 7:04am

Fri May 7, 6:04am

Fri May 7, 5:04am

Fri May 7, 4:04am

Fri May 7, 3:04am

Fri May 7, 2:05am

Fri May 7, 1:04am

Fri May 7, 12:05am

Thu May 6, 11:04pm

Thu May 6, 10:04pm

Thu May 6, 9:05pm

Thu May 6, 8:04pm

Thu May 6, 7:04pm

Thu May 6, 6:04pm

Thu May 6, 5:05pm

Thu May 6, 4:04pm

Thu May 6, 3:04pm

Thu May 6, 2:05pm

Thu May 6, 1:04pm

Thu May 6, 12:04pm

Thu May 6, 11:04am

Thu May 6, 10:04am

Thu May 6, 9:04am

Thu May 6, 8:04am

Thu May 6, 7:04am

Thu May 6, 6:04am

Thu May 6, 5:04am

Thu May 6, 4:04am

Thu May 6, 3:04am

Thu May 6, 2:05am

Thu May 6, 1:04am

Thu May 6, 12:05am

Wed May 5, 11:04pm

Wed May 5, 10:04pm

Wed May 5, 9:05pm

Wed May 5, 8:04pm

Wed May 5, 7:05pm

Wed May 5, 6:04pm

Wed May 5, 5:04pm

Wed May 5, 4:04pm

Wed May 5, 3:04pm

Wed May 5, 2:05pm

Wed May 5, 1:05pm

Wed May 5, 12:04pm

Wed May 5, 11:05am

Wed May 5, 10:04am

Wed May 5, 9:04am

Wed May 5, 8:04am

Wed May 5, 7:04am

Wed May 5, 6:05am

Meta data:

ID: 2c5fda24-9359-46b8-be78-6adc7129fab8
Link: https://api.weather.gov/products/2c5fda24-9359-46b8-be78-6adc7129fab8